Theta_e
307 309 313 315 316 316 317 318 320 320 319 318 318 318 320 319 319 320 325 323 325 327 327 327 326 327 330 331 337 335 336 336 337 335 335 338 339 337 336 336 339 336 336 336 336 337 338 336 337 337 342 338 337 337
302 305 308 311 315 315 316 317 317 318 319 317 317 317 319 319 319 319 324 324 322 323 327 326 326 326 326 328 329 332 335 339 337 341 339 338 341 337 336 333 337 334 336 340 340 343 342 338 339 339 338 339 339 338
301 301 302 304 306 309 313 314 316 317 317 317 317 317 317 318 318 318 319 320 323 326 328 327 328 328 324 325 326 329 334 333 336 334 339 339 345 340 337 335 339 338 337 335 338 339 339 339 338 338 337 338 339 338
301 302 301 301 302 303 306 309 314 316 316 317 317 316 315 317 318 318 318 319 320 325 328 328 324 325 325 324 326 327 329 330 330 332 336 338 336 335 334 337 335 339 338 338 338 338 339 338 338 337 338 339 338 339
301 301 301 302 301 301 302 306 312 314 315 316 316 315 314 316 317 318 318 319 319 322 330 328 327 325 323 324 324 326 327 329 331 334 335 336 335 335 334 335 334 333 334 336 341 340 343 340 338 338 338 338 338 336
301 301 301 301 301 302 301 302 303 305 308 311 314 313 314 315 317 318 325 322 321 320 326 330 326 325 326 325 326 328 328 329 330 332 333 331 330 332 334 334 333 333 333 333 336 335 335 336 337 337 338 338 336 335
301 301 301 301 301 301 301 301 302 302 304 305 306 309 312 315 317 319 324 322 320 320 326 330 328 326 326 326 327 329 328 329 330 330 330 330 331 329 332 333 332 332 332 334 334 334 333 333 335 336 338 336 334 334
300 300 301 301 301 301 301 301 302 302 302 303 303 305 311 315 317 319 320 319 320 323 326 330 329 328 326 326 329 329 329 329 328 329 329 330 330 330 331 330 331 332 332 333 335 335 335 335 335 336 336 334 334 334
300 300 301 301 301 300 301 301 301 302 302 302 303 307 314 317 321 323 321 319 319 324 329 329 331 331 327 328 328 328 328 330 328 329 328 328 329 330 333 333 333 333 334 335 335 334 334 336 335 335 334 333 334 333
301 300 301 301 301 301 301 300 301 302 302 302 307 316 322 323 322 321 320 323 322 325 325 328 328 332 328 328 328 328 327 329 331 330 329 330 328 336 336 334 334 334 333 335 334 334 333 334 334 334 333 333 333 333
301 300 300 300 301 301 300 300 301 304 305 312 318 321 321 319 322 324 326 327 327 329 327 327 327 329 327 331 329 328 331 329 329 331 331 331 335 339 336 335 335 334 334 335 336 335 336 335 334 333 332 332 332 333
300 300 300 300 300 301 300 300 306 309 310 313 317 319 319 323 324 327 328 328 329 330 327 328 327 326 328 328 331 330 329 329 330 332 332 332 341 338 337 336 335 335 335 335 335 335 334 334 334 334 334 333 332 332
300 300 300 300 300 300 300 301 304 307 312 315 317 318 322 322 323 328 330 330 330 328 330 329 332 328 327 327 328 332 329 332 331 333 334 341 337 336 335 334 334 333 332 331 331 332 332 332 332 331 331 331 332 333
301 300 300 300 300 300 301 302 305 310 314 314 317 320 325 325 327 326 327 330 329 329 329 329 331 329 327 328 330 331 331 331 332 332 336 336 335 335 335 332 330 328 327 326 325 325 325 326 326 327 328 331 330 328
301 301 300 300 300 301 302 303 305 310 313 314 318 325 326 325 325 325 326 328 329 329 329 332 332 329 330 330 330 331 332 331 334 336 337 335 333 332 331 330 329 329 328 328 328 327 326 325 325 325 326 326 326 329
300 300 301 301 302 303 303 304 308 311 313 315 320 325 324 325 326 326 328 330 328 329 330 331 331 332 332 330 329 330 329 333 336 334 333 333 330 327 326 326 327 327 328 328 329 329 328 327 326 326 325 326 326 325
300 303 301 302 302 303 304 307 309 312 315 319 322 323 324 326 327 327 326 327 327 328 329 329 333 331 330 329 331 332 333 335 333 332 330 330 330 328 326 324 322 322 322 324 324 326 325 325 325 325 326 326 326 326
302 301 302 303 304 308 310 311 314 314 317 319 322 324 325 325 326 326 326 326 327 326 323 326 324 333 332 332 334 333 331 332 332 331 329 325 323 325 327 328 326 324 324 324 327 326 326 326 324 324 324 325 325 324
302 303 304 307 309 310 312 313 314 317 318 320 321 323 325 324 324 325 325 325 326 325 322 322 327 332 333 331 330 330 331 331 330 328 325 324 322 323 326 327 326 327 327 327 326 324 324 325 324 323 323 323 323 324
302 306 308 309 310 311 313 315 315 318 319 320 322 323 324 323 320 322 323 322 321 321 322 323 326 328 329 326 326 326 327 326 325 325 324 324 325 326 325 324 323 322 322 322 321 319 320 321 320 319 317 317 320 320
306 308 309 310 311 311 314 315 316 317 318 320 321 321 322 322 321 320 321 320 320 322 322 323 324 324 323 325 325 325 325 324 324 324 324 324 322 320 318 317 317 317 317 316 316 316 315 315 313 311 311 312 311 311
308 309 310 310 312 313 314 316 317 318 318 319 319 319 321 321 321 320 321 322 322 321 321 323 321 322 324 324 324 324 324 323 322 320 319 318 317 316 316 315 314 314 313 311 310 310 310 309 308 307 308 308 308 308
309 309 311 313 314 314 314 316 317 318 319 318 316 317 320 321 321 321 322 321 321 321 322 322 323 323 322 321 320 319 319 318 317 316 315 313 311 311 311 311 310 309 308 308 307 307 307 306 305 305 306 305 304 304
309 312 313 314 314 314 315 316 317 318 318 318 318 321 321 321 320 322 324 322 321 322 323 323 322 322 322 321 320 318 317 316 314 313 312 312 312 311 310 308 306 305 305 306 305 305 305 305 304 304 304 303 302 302
312 311 313 311 314 316 317 318 318 319 319 319 320 322 321 321 322 323 322 321 321 322 322 323 322 320 320 319 317 314 312 310 310 309 308 308 308 308 307 306 305 304 304 304 304 304 303 303 302 302 302 301 299 300
311 313 313 315 316 318 318 319 320 320 320 320 320 320 320 321 322 322 319 317 317 317 318 319 318 316 315 314 314 311 309 308 309 307 305 304 305 305 305 305 305 303 301 301 301 301 301 301 301 300 300 301 299 298
314 315 315 315 316 317 317 318 318 319 320 321 321 320 321 320 319 316 313 313 314 312 311 311 311 309 308 308 307 306 305 304 304 303 303 303 303 303 303 303 302 301 301 300 300 300 300 300 300 300 300 300 299 298
315 316 317 317 316 316 317 317 318 319 320 320 320 320 320 319 315 311 309 309 308 306 304 303 304 303 304 305 305 305 304 303 302 302 303 302 302 301 301 302 301 300 301 299 298 299 299 299 299 299 299 300 299 299
316 316 316 315 315 316 317 315 318 318 319 321 319 318 315 313 312 311 310 308 307 307 306 306 305 304 303 303 303 303 303 304 304 304 304 303 303 302 301 301 301 301 301 301 300 299 299 299 299 299 299 300 300 299
315 315 315 316 316 316 315 317 317 317 318 317 313 311 310 309 308 307 307 308 308 308 307 306 305 305 304 304 303 303 303 303 302 303 303 303 302 302 302 301 301 301 301 301 301 301 300 299 300 300 300 300 300 299
315 315 314 314 314 313 314 315 315 315 315 314 313 311 309 308 310 311 311 312 310 309 308 306 305 305 305 305 305 305 305 304 303 303 302 302 303 303 303 302 302 301 301 301 300 300 300 300 300 300 300 300 299 299
314 316 314 314 314 312 313 313 312 312 312 313 313 312 312 311 311 311 310 310 309 309 306 306 307 305 304 304 304 304 301 304 304 304 303 302 302 302 301 302 302 301 301 300 300 301 301 300 300 300 299 299 299 299
317 315 314 313 313 313 315 314 314 314 313 313 312 311 310 311 311 310 309 309 309 308 307 305 305 305 305 305 304 304 303 304 303 301 301 300 299 298 297 300 301 301 299 299 299 300 300 300 300 300 300 299 299 299
Wind_Speed
12 12 11 8 6 5 5 5 7 7 8 5 10 13 12 10 7 4 4 7 3 9 17 14 10 8 7 7 7 11 7 10 7 8 7 4 15 4 3 16 6 7 5 8 10 12 11 12 9 6 8 7 7 9
9 11 12 14 12 9 9 9 9 10 11 7 10 13 13 10 7 5 2 7 7 8 13 15 16 17 16 12 11 8 3 5 8 5 9 3 4 4 3 6 4 5 4 4 5 7 5 7 9 8 4 8 6 7
6 8 10 12 13 14 13 11 11 10 11 9 10 11 11 10 9 7 6 8 7 10 19 13 10 6 7 14 12 10 2 5 4 7 11 6 6 10 6 3 7 11 2 3 7 5 4 2 5 3 3 6 6 8
7 8 9 10 12 12 13 14 14 13 12 10 10 10 10 10 9 8 6 5 4 8 7 6 2 2 5 6 10 13 7 5 7 7 10 5 6 3 4 5 5 9 8 3 5 3 0 3 1 4 5 7 10 11
9 8 9 8 10 11 13 12 14 15 15 13 12 10 10 9 9 9 8 7 6 3 8 12 11 4 3 6 9 9 10 6 6 5 5 4 4 4 1 4 7 6 4 2 5 8 3 5 5 4 7 10 12 14
9 8 8 8 9 9 11 13 13 15 15 14 14 11 11 8 7 6 5 3 3 5 5 4 2 4 4 6 8 9 9 6 6 4 2 3 4 6 5 4 1 5 5 7 6 4 5 3 1 4 8 12 13 14
10 10 9 9 9 9 9 9 14 15 14 14 12 11 10 7 5 4 1 2 2 1 5 6 4 7 4 8 10 10 8 6 6 5 4 6 3 2 5 8 5 3 1 4 6 5 6 5 4 6 11 14 14 12
8 10 10 9 9 9 10 11 12 14 13 11 11 10 8 7 6 4 7 8 3 4 5 4 3 6 9 10 9 10 9 7 7 8 1 6 6 4 5 9 10 8 5 8 4 3 6 4 4 8 12 14 15 13
10 9 10 9 8 10 10 12 11 10 9 8 7 6 5 4 4 5 7 6 7 5 7 4 8 2 10 10 8 10 9 6 4 5 8 3 6 5 3 4 4 5 6 3 3 1 2 3 7 9 12 13 13 11
10 9 10 9 8 8 10 12 8 6 6 7 8 2 5 6 8 5 1 5 5 7 7 7 6 3 8 12 10 9 9 5 5 7 5 4 8 11 5 0 3 5 5 5 6 4 3 3 6 9 11 12 11 10
8 8 9 9 8 8 9 11 2 6 8 7 4 3 1 5 5 5 5 6 8 5 9 11 11 6 6 5 3 6 2 3 5 5 5 6 3 7 3 1 2 4 5 3 4 8 7 5 4 4 5 6 7 9
6 8 8 8 8 8 9 8 9 10 3 9 6 3 3 5 5 5 5 5 6 5 8 9 9 12 2 3 4 5 6 2 1 6 2 4 5 6 9 10 10 10 11 11 11 12 13 13 10 8 5 2 2 7
3 6 7 7 8 8 8 6 10 11 8 6 4 3 4 4 2 6 7 5 4 6 8 8 7 8 6 6 6 3 5 7 3 4 2 4 12 9 10 12 13 12 11 10 11 11 11 11 10 8 7 8 7 4
5 5 6 7 6 6 5 2 11 12 6 3 4 3 5 5 6 4 2 4 5 6 6 6 5 9 9 7 4 4 1 3 4 3 2 3 7 11 11 12 12 11 11 12 12 11 11 11 9 10 11 7 7 6
5 5 5 6 7 5 4 3 13 12 4 3 4 5 7 8 5 3 5 6 3 2 4 3 6 8 7 5 4 5 4 4 4 3 4 10 11 13 14 13 12 11 11 11 10 11 12 11 9 10 9 6 5 4
3 4 5 5 5 5 5 7 14 5 3 3 6 6 8 7 7 6 6 7 2 2 0 3 4 2 4 2 5 6 4 2 3 5 14 12 13 16 13 12 12 10 11 10 10 9 8 7 6 6 7 6 6 7
2 3 4 6 5 6 14 11 7 4 4 4 5 7 2 2 2 2 3 3 2 1 3 4 3 3 2 4 4 4 3 5 10 14 15 15 12 12 9 7 7 8 7 8 14 12 9 6 5 5 7 9 10 10
2 2 3 5 12 14 10 5 3 3 5 8 5 1 1 7 7 4 6 4 1 3 5 2 7 3 2 1 3 5 10 11 13 15 12 12 10 9 6 3 4 4 5 5 5 5 3 6 7 7 9 8 11 10
2 3 9 10 12 6 4 4 3 4 6 5 5 2 7 6 7 6 6 7 7 6 7 4 4 2 3 9 14 13 12 13 15 13 11 8 5 4 5 5 3 4 2 3 5 6 7 6 5 9 11 12 13 15
3 7 8 12 5 2 3 3 3 3 3 4 4 4 6 7 7 6 6 8 9 5 4 1 2 5 10 13 15 14 13 12 12 12 12 10 5 8 9 8 6 6 6 6 6 9 8 8 9 10 11 12 13 13
7 7 7 3 1 1 1 2 3 2 1 1 3 4 3 4 5 3 7 5 4 3 3 5 11 11 13 15 12 13 10 9 9 7 8 10 10 9 7 7 7 7 7 8 9 9 10 10 11 13 13 12 13 13
5 4 2 1 1 2 2 3 2 1 2 2 6 4 0 3 6 3 6 4 5 7 5 10 11 12 14 16 15 13 13 14 13 13 12 9 9 8 9 9 8 7 7 9 10 9 9 10 12 11 12 13 13 13
1 1 1 1 2 2 2 4 4 3 3 4 4 4 1 2 6 5 4 4 5 8 8 10 13 15 15 15 16 15 13 12 12 11 9 8 7 7 7 7 8 8 7 8 8 8 8 11 12 13 12 13 15 15
2 1 2 2 2 2 5 4 3 4 5 5 3 5 4 6 8 3 4 3 5 7 9 9 10 12 13 13 12 12 10 9 9 8 7 6 5 5 5 6 7 8 8 7 7 8 9 10 12 12 13 14 16 16
3 1 3 3 2 3 3 4 5 5 5 2 3 5 5 5 2 3 3 3 6 7 8 8 8 9 11 11 10 10 10 8 8 8 7 6 5 3 4 4 7 9 9 8 9 9 10 10 11 12 13 13 17 16
1 1 1 2 0 1 2 2 1 2 5 4 2 3 3 3 4 4 3 6 11 13 10 8 8 9 10 8 7 5 5 5 5 5 6 7 6 5 4 4 4 8 9 9 9 9 10 11 11 12 12 13 17 15
2 2 2 1 2 1 2 5 5 3 3 3 2 3 2 4 3 4 3 7 10 9 11 10 10 9 8 7 7 6 5 6 6 6 6 7 8 7 6 5 4 3 7 9 10 10 10 11 11 12 12 12 13 14
3 4 5 6 8 6 3 2 4 4 3 3 3 6 4 4 2 3 12 15 13 15 12 11 10 9 8 6 5 5 5 5 6 6 7 8 8 8 7 5 5 11 3 7 9 11 11 9 11 11 12 14 14 15
4 3 7 12 7 6 7 4 3 2 4 4 3 3 4 5 11 20 18 15 13 12 10 7 7 6 7 7 7 6 5 4 4 4 3 4 5 6 6 6 6 6 5 8 13 12 14 13 11 12 11 14 15 16
9 8 6 4 4 5 7 5 7 6 7 7 11 17 21 25 22 18 16 11 7 5 4 4 3 3 4 5 5 5 5 5 4 4 4 4 4 5 6 7 7 7 8 8 9 10 13 16 14 13 14 13 14 15
6 7 6 7 6 11 14 18 18 18 18 21 21 25 19 19 12 8 6 5 4 4 3 3 3 3 3 2 2 1 2 3 3 3 4 3 5 7 8 8 8 9 9 10 10 10 12 14 13 13 13 14 15 16
4 4 8 3 3 7 10 12 13 13 13 13 15 14 11 9 9 7 6 4 3 2 2 2 2 2 1 1 2 3 2 3 5 4 5 6 7 8 8 8 9 9 10 11 12 12 12 14 14 14 15 15 15 16
10 16 13 9 4 1 5 5 3 5 6 3 3 5 6 5 3 3 5 4 1 2 2 1 1 1 0 1 1 4 6 4 8 8 8 15 11 12 12 8 8 10 11 12 12 12 13 13 14 15 15 16 17 17
Wind_Direction
260 259 255 262 252 252 249 251 253 266 280 293 318 324 326 334 337 323 262 298 304 291 288 287 272 274 289 247 311 359 267 211 223 245 226 118 270 146 107 274 342 209 279 250 254 271 279 91 161 233 105 111 88 77
271 259 250 248 249 255 266 270 270 268 277 291 302 309 314 322 329 326 316 313 303 264 267 289 271 257 254 259 298 313 315 289 348 288 271 94 87 248 96 257 276 250 325 3 340 348 39 39 60 93 55 115 98 96
286 273 266 259 254 252 253 258 268 270 274 286 292 299 307 315 318 304 283 293 317 281 294 245 244 231 248 241 227 272 105 338 3 331 323 331 107 265 232 231 130 215 100 291 330 64 82 156 100 83 102 104 111 113
289 285 281 271 264 263 260 257 254 260 268 277 283 293 301 309 320 316 299 290 321 300 277 153 210 221 241 216 214 223 272 303 301 311 296 309 306 8 321 78 187 92 242 113 273 257 26 113 128 139 131 134 129 133
312 300 298 286 267 259 258 256 246 253 261 264 273 283 293 303 310 312 299 288 249 274 325 317 297 254 225 208 213 218 223 257 295 265 263 284 25 307 179 330 287 287 310 301 40 25 47 54 133 152 159 155 152 145
287 299 297 300 294 277 260 253 249 248 251 256 262 271 281 293 308 344 236 315 262 207 285 268 35 219 219 216 202 198 203 226 248 273 256 5 357 312 294 284 271 23 13 358 352 357 10 347 142 190 179 168 159 153
290 279 286 291 294 298 282 263 252 254 258 264 265 264 269 279 281 248 14 198 241 180 265 276 207 164 195 181 181 185 196 217 246 241 240 259 144 244 282 273 320 155 179 310 294 283 266 251 251 206 180 173 164 158
307 289 277 287 294 290 294 291 269 251 254 258 255 253 259 275 283 276 240 237 247 254 255 270 255 170 181 183 176 181 188 207 204 260 240 254 221 225 265 266 278 325 338 289 289 267 289 286 208 187 181 176 172 164
280 293 271 275 289 293 294 296 288 259 247 245 235 232 254 251 223 205 263 219 212 236 301 249 273 89 170 216 130 191 202 206 161 238 241 245 250 231 53 351 350 325 292 292 247 180 113 139 156 178 181 191 182 176
266 286 269 268 274 287 296 298 290 232 212 185 169 180 209 173 234 207 89 175 205 213 229 256 291 244 197 183 196 185 195 243 208 202 135 231 249 88 77 2 279 270 248 227 207 167 140 135 167 183 197 204 213 196
262 255 257 270 276 279 296 309 252 152 143 145 203 198 63 182 163 214 220 217 197 216 209 232 251 270 198 258 233 202 0 235 235 182 214 201 148 60 28 237 200 197 195 173 93 78 74 78 123 164 192 205 227 213
259 259 258 266 275 281 293 308 151 126 190 189 180 165 157 209 228 220 209 208 208 231 159 208 190 212 149 247 241 190 242 276 249 206 241 229 102 95 91 98 107 106 98 97 98 95 90 85 83 84 77 125 276 275
280 280 263 262 272 281 287 282 193 175 156 161 188 176 189 185 222 224 195 198 185 191 168 189 180 194 191 225 243 195 236 207 254 198 235 87 123 116 113 111 109 106 99 92 86 78 76 73 72 73 71 22 59 347
266 283 268 263 272 283 270 241 181 174 174 170 188 207 222 215 217 227 242 90 133 139 186 202 187 189 204 177 221 216 180 247 250 235 84 93 129 110 108 100 100 93 87 76 69 65 66 62 41 41 44 3 339 303
266 291 279 266 268 246 227 230 178 187 195 230 216 213 223 208 249 153 148 126 111 271 225 198 250 210 183 195 210 133 244 223 23 18 116 100 94 96 97 93 90 85 78 67 58 52 46 46 30 22 15 358 345 329
266 304 258 240 235 250 228 185 169 178 252 225 238 255 225 205 214 189 104 142 116 27 2 318 227 257 205 175 210 196 231 77 97 122 118 119 105 105 87 83 80 72 63 52 33 25 18 14 12 7 349 343 331 313
257 232 242 280 259 180 154 149 181 236 227 241 253 237 241 271 134 95 135 108 54 97 59 349 264 220 241 223 143 11 58 87 116 100 112 109 114 111 100 69 52 41 24 20 10 355 329 339 347 341 346 328 321 303
209 237 280 161 133 139 140 152 183 240 251 235 254 260 55 102 107 108 92 62 63 86 104 66 309 277 271 111 100 105 115 117 106 111 109 110 108 100 70 68 9 344 328 335 334 312 337 2 330 346 343 344 326 337
191 203 154 145 138 132 157 193 204 245 244 218 231 220 90 97 80 84 95 78 83 103 105 51 291 316 63 74 103 94 109 112 110 106 99 84 72 51 62 48 50 52 40 39 23 356 345 347 345 337 326 334 324 335
163 148 141 150 151 140 193 201 210 270 220 205 195 100 94 85 73 62 82 93 97 83 83 105 311 23 85 89 97 98 100 110 116 111 102 92 92 79 71 63 42 29 29 22 13 1 2 349 348 343 338 340 336 334
100 113 138 153 55 308 280 180 202 278 271 145 93 90 102 117 94 58 109 83 68 48 97 40 88 92 97 87 87 97 91 95 82 93 101 95 84 76 70 57 44 30 19 9 1 358 358 351 340 342 344 337 335 337
144 147 116 99 244 258 256 187 210 170 220 180 118 59 276 194 142 143 120 65 68 56 76 87 100 99 88 84 85 86 87 89 88 84 80 78 66 57 45 33 28 17 13 7 5 359 353 346 341 353 348 346 344 339
116 316 352 271 278 238 192 164 199 187 183 114 80 336 253 170 174 122 82 71 85 90 97 99 103 97 95 92 91 87 93 95 91 82 71 62 52 52 49 30 23 19 17 7 4 2 355 352 355 5 355 355 355 352
45 31 312 285 249 246 165 191 198 173 142 124 204 169 172 163 142 61 90 72 99 121 118 119 115 110 101 94 91 84 78 75 76 65 54 39 32 34 31 30 30 25 25 14 8 10 7 7 8 7 4 2 4 4
291 339 270 274 246 231 198 185 189 207 141 151 266 125 173 158 114 82 75 90 104 86 84 91 100 101 100 100 89 78 70 60 57 53 37 25 15 12 27 30 26 30 23 23 18 19 13 12 7 13 9 4 8 11
324 141 14 336 276 287 23 111 81 120 138 148 113 110 72 86 59 63 50 58 80 65 63 79 93 91 84 86 85 65 42 61 59 50 39 44 50 50 43 37 29 15 24 22 18 15 10 9 5 9 10 2 357 4
337 27 35 75 345 19 65 47 60 75 82 51 76 113 131 78 62 63 80 111 130 119 105 98 99 96 85 74 72 73 65 70 95 92 75 64 57 53 53 50 35 25 18 29 22 18 13 8 5 5 2 0 354 353
8 347 30 39 45 44 67 48 36 24 10 42 57 33 45 45 76 82 121 115 110 100 85 79 79 75 77 79 79 78 76 77 86 76 63 50 50 44 44 24 7 23 25 13 31 21 17 7 3 357 357 354 350 349
28 51 74 46 39 28 38 30 0 7 0 3 93 78 80 78 138 132 124 111 95 87 82 73 79 80 79 80 83 82 78 74 71 60 35 33 19 13 13 10 8 2 356 332 336 349 349 357 353 349 348 350 344 343
25 39 84 45 43 36 19 28 63 64 59 74 108 105 106 116 119 114 106 91 88 104 95 95 103 103 98 92 85 76 67 62 62 49 27 12 3 349 347 347 345 340 335 338 337 335 335 345 345 340 340 335 337 342
64 58 58 73 55 43 54 74 77 79 85 97 111 114 118 127 119 124 133 140 120 108 109 93 93 93 94 90 49 0 69 357 7 3 6 352 334 326 323 328 331 330 325 323 324 325 327 335 335 333 334 336 336 338
93 116 95 110 93 77 75 69 73 86 104 111 118 120 134 142 116 132 150 159 155 110 104 79 95 116 105 63 27 9 351 332 337 335 324 321 315 311 312 306 305 314 317 321 321 317 318 324 325 326 326 326 328 331
111 110 110 105 121 97 88 99 83 97 82 83 125 163 167 166 159 153 175 161 146 123 119 89 89 134 276 89 352 354 356 317 297 321 343 348 342 346 348 339 316 303 310 319 321 319 318 319 322 324 325 322 321 321